Theta_e
331 331 330 332 332 332 333 336 338 335 334 332 331 330 328 326 324 325 322 322 322 323 324 324 322 322 324 325 323 323 323 323 324 325 326 327 328 333 341 340 339 340 339 338 337 337 336 335 334 332 331 330 328 327 327 328 328 328 329 330 331 332 333 335 335 333 333 332 333 331 330 329 328 328 326 326 326 324 324 324 324 323 322 322 322
331 331 330 331 331 332 332 335 336 334 334 332 331 331 329 328 325 324 324 322 323 324 325 324 324 323 323 325 324 325 324 323 323 325 326 327 328 330 340 339 338 339 339 338 338 337 336 336 335 333 332 330 329 327 328 327 327 328 329 330 331 332 332 334 336 334 332 332 332 330 329 328 327 327 326 325 324 324 324 323 323 322 322 321 321
332 332 330 330 331 331 331 333 333 333 335 333 331 331 330 329 329 327 326 324 325 325 325 324 324 324 324 326 326 325 324 324 323 325 326 327 328 329 334 340 338 336 337 337 339 337 337 337 336 334 332 331 329 329 328 328 328 327 329 330 331 331 332 334 335 333 331 331 331 330 329 328 327 326 325 325 324 324 323 322 322 321 321 321 320
333 332 332 332 331 330 331 331 332 334 334 333 333 333 330 330 330 329 328 326 326 326 325 324 324 324 324 325 325 325 324 323 324 324 326 327 327 328 330 334 338 335 335 336 336 338 337 337 337 335 334 333 332 331 330 328 327 328 329 331 331 331 332 334 335 333 331 330 330 330 329 328 327 326 325 324 323 323 322 322 322 321 321 321 320
332 333 333 333 332 330 330 331 332 334 333 334 334 332 333 331 329 329 327 326 325 326 327 325 324 324 324 325 325 325 324 323 323 324 325 326 327 328 328 331 331 336 334 336 335 336 338 337 337 336 334 334 333 332 331 330 328 328 329 331 331 331 332 333 335 333 331 330 330 330 329 328 326 325 324 323 322 322 322 321 321 320 320 320 320
332 332 334 332 333 332 331 330 331 333 333 333 333 332 332 332 331 329 331 328 326 326 325 324 323 324 324 325 324 324 323 323 322 323 324 325 327 327 328 328 329 330 331 337 337 335 335 338 337 337 335 334 334 334 332 331 330 329 329 330 332 332 332 333 335 333 331 330 330 329 329 328 327 325 324 323 323 322 321 321 320 320 320 319 319
331 330 333 333 333 333 334 333 332 332 333 332 331 331 331 331 330 328 326 326 327 327 327 325 324 323 322 323 323 322 323 323 323 323 323 324 325 327 327 328 328 328 329 328 336 336 334 336 339 337 336 335 335 334 334 332 331 330 330 331 331 332 333 333 334 334 332 331 331 329 328 327 326 325 324 322 322 322 321 320 320 320 320 319 318
331 330 330 330 330 330 332 335 336 335 333 331 331 331 331 330 331 330 327 328 326 326 325 324 323 322 321 321 322 322 323 323 323 323 323 324 325 325 327 327 328 327 331 327 327 332 334 334 336 337 337 337 335 335 335 334 333 331 330 331 332 332 333 333 334 335 333 332 331 329 328 328 326 325 324 323 322 322 321 320 320 320 319 319 318
331 332 329 330 331 331 331 332 335 334 333 330 330 330 331 331 330 331 330 327 327 327 326 322 321 320 319 318 320 320 321 323 323 323 325 323 323 324 325 326 327 333 329 327 326 327 332 335 334 335 335 336 336 335 336 335 334 333 331 330 332 331 332 334 334 335 334 332 331 330 329 327 326 325 324 323 322 321 321 320 319 319 319 319 318
329 330 329 332 332 331 331 331 332 333 331 331 331 330 329 330 330 331 332 329 327 327 327 325 321 320 319 319 319 319 320 322 324 325 324 323 323 323 324 325 326 326 327 327 326 326 327 331 334 333 335 334 335 335 336 335 335 333 333 331 331 332 332 334 335 335 334 333 331 330 328 327 326 325 324 323 323 321 321 320 319 319 319 318 318
327 328 327 329 328 329 330 331 331 332 331 330 330 330 330 329 328 328 330 331 329 329 328 326 326 325 321 319 319 319 320 322 324 324 324 324 324 325 325 324 324 325 326 326 326 325 325 326 328 329 331 334 334 336 336 335 335 334 333 333 332 333 332 333 336 336 335 333 332 330 328 327 325 325 324 323 322 322 321 320 319 319 318 318 318
317 319 321 324 325 327 328 329 330 331 330 329 329 328 329 329 329 328 328 329 330 330 329 327 325 323 321 323 323 321 319 320 323 324 325 325 324 325 324 324 324 325 325 326 325 325 325 325 326 327 328 331 334 333 334 334 334 335 334 334 333 332 332 331 333 336 335 334 332 331 328 327 326 325 324 324 322 322 322 320 320 319 318 318 317
316 315 314 324 322 323 323 324 326 327 327 327 328 328 329 328 328 328 327 326 326 328 330 327 323 322 319 319 321 321 322 321 320 323 324 324 323 324 324 324 324 324 325 326 325 325 324 324 324 325 326 327 330 332 332 331 332 334 334 334 333 332 333 333 332 335 336 335 333 332 329 327 326 326 325 324 323 323 321 320 319 319 318 318 317
316 315 316 314 315 316 318 319 320 321 323 325 326 327 326 326 327 325 329 327 325 330 331 327 320 318 317 316 316 318 320 320 319 320 322 323 323 324 324 325 325 325 325 325 325 324 324 323 323 324 325 326 327 328 329 330 331 333 335 334 334 333 333 333 332 333 336 335 333 332 329 328 326 326 325 324 323 322 321 320 319 319 318 318 317
314 317 316 315 315 316 316 318 320 322 320 321 322 322 323 325 326 323 322 326 327 330 329 327 323 321 319 317 312 314 315 316 318 319 320 320 321 322 323 324 326 327 326 326 325 325 324 323 323 324 325 325 326 327 328 329 328 331 333 335 334 334 332 333 333 333 336 335 334 332 330 328 327 326 325 324 324 322 321 320 319 319 318 318 317
313 315 314 313 313 314 315 317 318 318 318 317 318 320 321 322 324 325 325 321 323 324 330 328 326 323 317 316 313 311 310 313 314 317 319 319 319 320 322 323 324 326 326 326 326 326 325 324 323 323 324 325 326 326 327 327 329 329 329 332 333 334 333 332 333 333 334 336 334 333 331 328 327 326 326 325 323 322 321 320 319 319 318 318 317
312 313 316 312 312 313 314 314 315 315 316 315 315 316 318 319 322 323 323 321 320 322 325 328 327 328 322 317 314 312 312 314 314 315 316 317 318 319 319 320 322 322 323 325 327 327 326 325 324 323 324 325 325 325 326 327 327 330 329 331 332 333 335 333 333 333 333 336 335 335 332 329 327 326 325 325 323 322 321 320 319 318 318 317 317
310 312 315 314 312 311 312 313 313 314 315 313 313 314 315 315 317 319 318 322 323 322 321 324 327 327 326 326 322 315 315 318 316 310 316 317 318 319 319 319 319 320 321 321 323 325 326 326 324 323 323 324 325 325 326 326 328 327 327 328 329 329 327 329 334 335 334 336 335 335 334 331 328 326 325 324 323 321 321 320 319 319 318 318 317
310 308 311 312 311 310 311 312 314 314 315 313 313 313 314 316 316 315 316 318 321 319 320 322 324 326 327 327 327 325 324 319 314 315 313 316 318 317 319 320 319 318 319 320 320 321 323 325 325 325 324 324 325 325 325 326 328 327 329 327 326 326 323 322 325 333 335 334 336 335 334 333 328 326 325 324 323 322 321 320 319 319 319 318 318
309 309 309 312 310 309 309 310 312 315 315 313 312 312 313 315 315 314 315 316 316 315 316 319 318 320 324 323 324 326 327 326 324 319 317 314 317 322 322 321 320 320 319 319 319 320 320 322 325 324 324 324 325 325 325 326 326 327 327 325 324 324 322 321 318 318 325 333 334 337 336 334 331 327 326 324 323 322 322 321 320 319 319 318 318
310 310 308 311 314 308 306 308 309 312 314 312 311 312 311 311 312 312 312 313 314 314 313 314 316 316 318 321 323 323 324 325 325 324 319 316 316 318 319 321 320 320 320 321 321 320 320 321 323 324 324 324 325 325 325 325 326 326 327 324 323 322 322 320 317 316 316 324 333 336 336 334 333 330 327 325 324 322 322 322 321 320 319 318 318
306 308 308 308 308 309 307 307 308 312 312 309 309 309 309 310 309 310 310 311 312 313 312 311 313 314 316 317 316 317 320 322 323 322 322 321 315 317 319 318 317 320 320 321 321 322 321 320 321 323 324 324 324 325 325 325 325 326 325 323 322 322 320 318 315 314 314 319 330 333 336 335 334 331 329 326 326 324 322 322 322 321 321 319 318
305 306 306 308 309 313 307 308 309 313 310 308 307 307 307 308 308 308 308 308 308 310 311 312 311 311 312 314 314 315 315 314 316 319 319 318 318 318 319 321 320 319 322 324 323 324 323 320 320 321 323 324 324 325 325 325 325 325 323 324 322 321 319 318 317 314 314 321 328 333 337 336 334 332 331 328 326 325 324 323 322 322 321 320 320
305 306 305 306 309 306 308 307 309 306 307 306 307 308 307 307 307 307 306 306 306 308 305 307 308 309 310 312 312 314 316 316 317 318 317 317 317 317 318 320 321 321 323 322 323 323 323 321 320 320 322 323 324 325 325 325 325 325 323 323 322 318 317 317 316 316 313 319 323 331 337 336 335 333 332 331 328 327 325 324 323 322 321 321 321
306 306 305 305 309 305 306 306 306 308 306 306 305 305 306 306 306 304 304 305 305 305 305 304 305 307 307 309 310 310 311 314 316 317 318 319 318 315 317 319 316 318 320 320 319 321 322 322 322 321 321 321 323 323 324 325 325 324 322 322 320 318 317 315 314 313 312 312 318 325 332 336 333 333 332 331 330 328 326 323 320 317 317 320 319
305 306 306 306 307 308 307 305 305 306 307 305 305 306 304 306 304 304 303 304 304 304 304 305 304 305 305 305 307 308 309 311 313 314 315 315 314 314 314 316 317 317 319 319 320 320 321 322 323 322 321 321 321 322 322 325 325 323 322 323 320 318 316 315 313 313 312 311 311 316 321 326 329 330 329 330 328 322 318 316 314 313 312 313 317
306 306 307 306 305 304 305 305 304 303 305 304 306 304 305 304 306 305 305 303 303 304 303 302 304 303 303 304 305 307 307 309 311 311 313 314 315 315 314 310 312 315 314 316 318 319 320 322 322 321 320 320 321 321 321 322 323 321 319 323 324 317 315 314 314 313 312 311 310 313 315 319 321 321 320 320 318 318 318 317 314 313 311 311 312
303 305 305 305 304 305 306 302 303 304 305 304 303 303 303 303 303 302 301 308 303 302 302 302 302 302 303 303 304 304 305 307 309 310 311 313 313 315 315 314 310 308 313 313 314 317 320 320 321 323 323 322 322 321 322 321 321 320 323 323 323 320 314 313 312 312 311 310 309 310 312 315 315 316 316 317 319 318 317 316 315 313 312 310 310
305 305 305 302 303 303 303 303 302 302 302 303 303 302 302 302 301 301 301 301 304 302 302 301 302 302 302 302 303 303 304 305 306 309 310 311 312 314 316 314 314 310 309 310 313 313 314 318 317 318 321 323 323 324 324 324 322 322 324 323 323 323 317 313 311 311 311 309 309 309 311 312 314 313 315 317 318 318 316 315 314 312 312 311 309
307 308 305 303 304 309 302 303 301 302 303 302 302 302 302 301 301 300 301 301 301 301 302 302 301 301 303 302 301 301 302 303 304 305 306 307 308 310 312 314 316 312 312 309 311 317 316 314 317 318 319 321 322 321 321 321 318 322 323 322 322 322 316 312 311 311 311 310 309 310 311 311 312 313 315 317 317 316 314 313 312 311 312 312 309
308 306 303 303 303 301 300 301 302 302 301 300 302 301 301 300 301 301 300 300 300 299 299 301 301 302 301 300 300 301 301 302 302 303 304 305 306 307 309 311 311 312 312 312 309 316 319 316 315 318 319 320 322 321 320 320 319 318 319 320 321 317 316 314 311 310 311 310 310 310 312 312 310 311 313 315 316 315 313 313 314 312 311 311 308
305 304 303 302 302 300 300 301 301 300 300 300 299 299 298 298 298 300 299 299 299 299 298 299 301 301 300 299 299 300 300 301 300 301 302 303 305 306 307 307 309 310 312 311 310 310 318 318 319 319 320 319 321 320 321 321 321 316 317 318 319 316 317 318 311 309 309 309 309 309 310 310 310 310 310 312 314 313 312 312 312 311 311 310 308
304 303 303 302 300 301 300 302 301 300 299 299 298 298 297 298 297 297 297 298 298 298 299 299 299 299 299 299 299 300 300 299 300 301 302 302 302 304 305 306 307 309 311 310 308 309 313 318 318 318 320 319 319 319 320 320 319 317 315 315 315 316 316 317 317 309 308 308 307 307 308 309 311 310 308 309 312 311 310 310 310 309 309 309 306
304 304 303 301 300 300 300 299 299 299 299 298 297 297 297 297 296 298 298 297 297 297 297 298 298 300 298 298 299 299 299 299 299 301 301 301 300 300 301 303 303 306 310 310 309 308 307 312 314 317 318 318 319 318 319 319 318 316 316 317 315 315 315 315 315 315 307 308 307 306 307 308 309 308 308 307 309 309 309 308 309 307 307 306 304
303 304 303 302 302 299 299 299 298 298 297 297 296 297 296 296 296 296 297 296 297 298 298 298 298 298 298 299 298 299 301 299 299 299 300 300 300 299 300 302 303 304 307 310 310 308 309 309 313 314 315 317 318 320 321 320 320 318 317 317 317 315 314 314 314 315 308 306 306 306 306 307 308 308 308 308 307 307 307 307 307 306 304 303 303
303 303 302 302 300 299 299 298 297 297 297 296 296 296 296 296 296 296 296 296 296 297 297 298 298 298 299 298 298 299 299 299 298 299 299 300 300 300 300 301 302 302 304 307 309 306 305 304 307 310 313 315 317 319 320 319 318 316 315 315 312 314 314 313 313 313 310 306 305 306 306 307 308 308 307 308 308 307 307 307 306 305 303 302 301
303 302 300 299 299 298 299 297 296 295 295 295 296 296 295 296 296 296 295 296 296 297 298 298 301 300 300 300 300 299 298 298 298 298 299 300 301 301 300 301 300 301 302 303 303 303 303 302 303 307 310 311 314 316 318 318 317 312 309 312 313 313 312 312 312 314 309 306 306 306 306 306 307 307 307 307 307 306 306 306 305 304 303 302 301
301 301 301 299 300 297 296 296 296 295 294 294 294 295 295 296 296 295 295 296 297 297 297 298 298 299 299 299 299 300 300 300 300 300 300 300 301 300 300 300 300 300 299 298 299 300 301 301 302 302 305 306 308 311 315 316 316 314 311 309 307 307 309 309 310 310 310 310 308 308 306 306 306 306 307 307 307 306 306 305 305 304 302 302 301
301 299 298 298 298 297 296 296 296 296 295 295 294 294 294 294 294 295 294 294 295 295 296 297 297 298 299 299 300 300 301 301 301 301 301 301 301 301 301 301 302 301 300 299 299 298 298 298 299 300 301 304 307 306 311 315 316 316 314 311 309 309 306 308 309 306 304 307 307 306 308 308 309 309 307 307 307 306 306 304 304 303 302 301 300
300 299 298 297 297 296 296 296 295 295 294 294 293 293 293 293 294 294 294 295 296 295 296 296 297 297 297 298 298 298 299 300 301 301 302 301 301 301 301 301 300 299 298 299 299 298 297 297 297 297 299 300 302 306 309 311 312 311 312 312 312 312 309 308 308 306 302 304 305 308 307 308 307 307 306 305 305 305 304 304 304 304 302 300 299
300 298 297 296 296 294 293 294 295 295 294 295 294 294 294 293 293 293 294 294 295 295 294 294 295 295 296 296 296 297 300 302 300 300 300 300 300 299 299 298 298 297 297 297 298 297 297 297 297 298 298 298 299 301 302 304 307 309 313 310 310 311 309 306 307 306 306 305 306 308 309 310 310 310 310 310 310 306 306 305 305 304 302 299 298
298 297 296 295 294 294 294 292 292 294 293 293 299 298 297 295 293 294 294 294 294 293 294 294 294 294 295 295 297 300 300 300 299 297 296 296 298 298 298 298 297 296 296 295 295 295 296 295 295 296 296 296 297 299 300 302 306 308 308 308 308 309 304 303 303 303 303 306 306 306 308 309 310 310 309 310 310 307 308 306 306 304 302 299 298
297 297 295 293 292 293 293 292 291 292 293 294 296 293 293 294 294 292 293 293 293 293 293 292 292 293 293 294 294 297 298 298 298 296 295 294 294 294 295 296 297 297 295 295 295 295 294 294 294 294 295 295 297 299 300 302 304 305 305 306 307 305 303 302 304 303 304 306 306 306 307 307 308 308 308 309 310 307 307 306 303 301 300 298 297
295 294 293 292 292 292 292 291 290 292 292 296 293 293 293 292 294 294 292 292 292 292 292 292 292 292 292 293 293 295 295 295 296 295 296 295 294 294 294 293 293 293 294 296 295 295 294 294 293 294 294 294 295 298 299 300 302 303 305 306 306 305 304 303 305 307 303 305 305 305 306 305 306 307 307 307 308 306 306 304 300 299 299 298 297
293 293 292 293 292 291 291 290 290 291 291 294 293 293 292 292 292 293 291 291 291 291 291 291 291 291 292 292 293 293 294 297 298 295 295 295 295 294 294 294 294 294 292 292 293 296 297 295 294 294 294 294 294 295 299 300 302 301 303 304 305 304 305 305 306 309 299 303 304 303 304 302 303 303 306 307 306 304 303 300 299 299 298 298 297
292 292 292 292 291 291 290 290 289 289 289 293 292 292 292 292 291 291 291 291 291 291 291 291 291 291 291 291 291 292 292 293 294 293 293 293 293 293 293 294 294 295 294 293 292 292 294 296 296 294 295 296 295 296 300 303 303 302 302 303 305 305 304 305 306 298 297 304 304 303 301 299 300 302 302 305 303 302 302 300 298 298 297 297 297
292 291 291 291 290 291 290 288 287 288 290 293 292 291 291 291 291 291 290 291 290 290 290 290 291 291 291 291 291 291 291 291 292 293 292 292 292 292 292 292 292 293 294 294 295 296 296 296 296 296 297 297 297 298 300 302 303 305 306 304 305 306 306 299 294 295 297 302 304 304 302 300 298 300 301 303 299 300 300 298 297 297 297 296 296
290 291 289 290 290 289 288 287 288 287 288 291 290 291 291 291 291 291 290 289 289 289 289 290 290 290 290 290 290 290 290 290 292 292 292 293 291 291 290 290 291 291 292 295 295 295 296 297 297 297 298 298 297 299 300 300 298 298 298 299 300 301 302 301 301 297 296 298 302 304 301 299 297 300 300 299 298 297 297 297 295 297 296 296 295
290 290 290 289 290 288 287 287 286 286 286 289 290 290 291 291 291 290 289 289 289 288 288 289 289 289 290 290 290 289 289 289 291 290 290 291 290 289 289 289 290 290 291 293 294 293 293 293 293 293 294 294 294 294 294 294 295 297 297 296 295 299 300 300 301 299 298 294 297 303 303 301 295 298 298 294 296 296 295 295 296 295 296 296 295
290 291 290 290 288 288 287 286 287 286 286 289 291 291 291 291 291 289 289 288 288 288 288 288 289 289 290 293 294 291 290 290 291 290 290 290 289 289 289 289 289 289 290 292 293 294 294 293 293 293 292 293 293 293 294 294 293 294 295 293 296 299 299 300 300 301 298 295 296 300 300 300 293 296 296 290 291 292 294 294 295 295 295 294 294
292 290 291 290 288 287 287 287 293 290 287 289 291 290 290 290 291 289 288 287 287 287 287 287 288 288 289 291 292 292 292 292 290 290 290 290 289 289 288 288 288 288 290 291 292 292 293 293 294 294 294 294 295 295 296 294 293 295 296 296 297 299 299 301 301 300 297 296 295 300 300 294 292 293 294 290 290 292 292 293 293 294 294 294 294
Wind_Speed
4 4 3 4 3 2 2 3 3 3 4 4 4 5 4 3 3 3 2 2 2 3 2 3 2 1 2 1 2 3 3 4 4 5 4 4 5 6 10 10 10 10 12 12 12 12 12 11 10 9 9 8 6 5 5 5 5 5 4 3 3 3 4 2 7 6 5 5 6 6 7 8 9 10 10 11 11 11 11 12 12 12 12 12 12
4 3 4 4 4 4 4 5 3 4 4 4 4 5 5 4 3 3 3 3 3 3 2 3 4 3 2 4 3 4 4 4 5 6 5 5 5 5 10 11 10 10 10 11 12 12 12 11 10 9 9 8 7 7 7 6 4 5 6 4 2 3 5 6 6 6 6 5 5 5 6 7 8 9 10 10 10 11 11 11 11 11 11 12 12
5 5 4 4 5 5 4 4 5 4 4 4 4 4 5 5 5 4 4 4 5 3 2 3 4 5 3 3 4 5 5 5 5 5 5 5 5 5 6 11 11 10 9 9 10 11 12 11 11 10 9 8 8 9 8 7 7 7 7 5 3 4 5 7 5 6 7 6 5 6 6 7 8 8 9 9 10 10 11 11 11 11 11 11 11
5 5 6 4 4 4 4 4 5 3 3 4 4 3 4 5 5 4 4 4 4 4 3 4 5 5 4 5 2 4 5 6 6 7 6 5 5 5 5 6 10 10 9 9 9 10 12 12 11 11 10 10 10 10 9 8 8 7 7 6 5 5 6 8 6 6 6 6 6 6 6 7 7 8 8 8 9 10 10 10 11 10 10 10 11
5 6 5 4 4 4 4 4 4 4 3 4 5 3 3 3 3 3 4 3 3 4 3 3 5 7 5 6 4 5 5 5 6 6 7 7 6 6 5 5 5 9 10 9 10 10 11 12 12 12 10 11 11 11 10 9 8 8 8 7 7 6 6 8 6 6 6 6 6 6 6 7 8 8 8 8 9 9 9 10 10 10 10 10 11
4 3 3 5 4 4 3 3 3 3 2 2 3 3 3 3 3 4 3 3 4 4 4 5 6 6 6 7 4 6 5 6 6 7 6 6 6 6 6 5 5 5 5 8 11 11 11 12 13 13 13 13 13 13 11 11 10 9 9 8 8 7 6 7 6 7 7 6 6 6 6 7 8 8 8 8 8 8 9 9 10 11 11 10 10
1 2 2 2 4 5 4 2 2 2 3 2 2 2 3 3 3 2 2 2 3 2 3 5 5 7 7 6 6 5 5 7 6 5 5 6 5 5 5 5 5 5 6 6 8 12 11 11 13 14 14 13 13 13 12 12 12 11 10 10 9 7 7 7 6 8 8 7 6 6 6 7 8 8 8 8 8 8 8 9 9 10 10 10 10
0 1 1 1 1 2 1 1 3 3 4 2 2 3 3 3 3 2 2 3 3 3 4 5 5 7 5 5 5 5 6 6 6 6 6 4 5 5 5 5 5 5 6 5 6 7 13 12 12 14 14 14 13 13 13 13 12 12 11 12 12 10 8 7 7 10 9 8 7 6 7 8 8 8 8 8 8 8 8 8 9 9 10 10 10
1 2 2 3 2 0 5 4 3 2 1 2 3 3 4 4 3 3 3 3 3 3 3 3 5 5 3 4 5 4 5 6 6 7 5 6 5 5 5 5 6 6 5 5 5 5 9 13 12 12 14 12 12 14 14 13 13 12 12 12 12 12 10 8 8 9 10 9 8 7 7 8 8 8 9 9 8 8 8 8 9 9 9 10 10
1 2 1 0 0 2 3 5 1 2 0 4 3 2 2 2 3 1 2 3 4 2 2 3 3 3 3 3 3 5 6 6 6 5 6 7 6 6 7 7 6 6 5 5 5 6 6 9 13 12 12 13 13 14 15 13 13 13 13 13 13 13 12 11 11 10 11 11 9 9 8 8 8 9 9 9 9 8 9 8 9 9 9 9 9
1 1 1 1 2 3 4 3 2 3 5 4 3 2 2 1 2 1 1 2 2 3 3 2 2 1 3 4 4 5 5 4 4 5 6 8 8 8 5 6 6 6 6 6 6 5 6 5 5 6 8 13 13 14 15 14 14 14 13 13 14 14 14 13 13 11 13 12 11 10 9 9 9 9 9 9 9 9 9 9 9 9 9 9 9
2 2 3 2 1 1 2 4 1 1 2 2 2 1 1 1 3 1 2 3 2 3 5 5 4 2 1 1 2 2 3 4 5 6 6 5 7 5 7 6 6 6 6 6 6 6 6 6 5 6 6 9 14 14 14 13 12 13 14 13 14 14 14 14 14 12 15 14 12 12 11 10 9 10 10 9 9 9 9 9 9 9 9 9 9
3 3 3 3 2 2 1 2 2 1 2 2 3 1 1 2 4 3 5 4 1 2 3 4 5 6 2 2 3 1 2 3 6 6 6 6 4 5 6 5 7 7 7 6 6 6 6 6 6 6 6 5 8 13 14 13 13 12 15 14 13 14 15 15 15 13 14 15 14 14 13 11 11 10 10 10 10 9 9 9 9 9 9 9 9
3 3 4 3 3 2 2 2 2 1 1 2 2 0 0 2 1 0 2 0 2 1 0 2 2 2 3 4 3 3 1 3 4 4 5 5 5 6 6 6 7 7 6 6 6 7 6 6 5 6 6 6 6 6 8 10 11 14 14 15 15 14 15 15 15 15 15 15 14 14 14 14 12 12 11 10 10 9 9 10 10 9 9 9 8
4 4 4 3 4 3 2 2 2 1 2 4 3 3 2 3 1 1 1 0 1 1 2 0 2 3 1 3 2 1 3 1 1 3 5 5 5 6 6 7 8 7 6 6 6 6 6 6 6 6 6 7 6 6 7 8 10 14 15 15 16 14 16 16 16 17 14 16 16 14 14 14 14 13 12 11 11 10 10 10 10 9 9 9 9
3 4 3 3 4 4 3 4 4 2 4 5 6 6 6 5 2 1 0 1 0 1 1 2 2 3 1 2 1 0 4 2 3 4 4 6 6 7 6 7 7 6 5 7 8 7 7 7 8 8 8 8 7 7 7 7 12 13 14 14 15 14 15 16 18 18 16 17 16 16 16 15 15 14 13 12 11 10 11 10 10 10 9 9 9
3 4 4 4 3 4 5 4 4 3 4 6 6 5 4 4 4 3 3 2 3 2 2 1 1 1 1 1 2 1 3 2 4 5 1 3 5 7 6 6 6 7 7 8 7 7 7 7 7 7 8 8 8 8 8 8 8 8 11 14 15 15 15 17 18 18 18 17 18 18 17 16 15 15 14 12 11 11 11 11 11 10 10 9 9
2 3 3 3 4 3 4 4 4 5 5 5 4 5 6 6 5 5 6 6 2 3 2 3 2 1 3 2 1 1 3 3 3 3 4 2 2 2 4 5 5 5 6 6 7 7 7 8 7 8 8 8 8 8 8 8 8 8 8 11 17 16 15 16 18 19 19 17 19 19 18 17 16 15 14 13 12 11 12 12 11 11 10 10 10
1 2 3 3 3 3 4 4 4 4 3 5 6 5 4 4 4 6 5 5 6 5 6 5 4 1 0 2 3 3 4 2 3 2 4 5 3 2 2 2 3 4 5 6 6 6 6 7 8 9 8 8 8 8 8 8 11 11 14 14 16 17 17 16 15 17 19 18 18 19 19 18 17 15 14 14 14 13 13 12 12 12 11 11 11
1 1 2 3 3 3 3 4 5 4 4 5 5 3 5 4 5 4 5 6 5 5 3 5 5 4 6 4 3 3 4 4 5 5 5 6 8 5 3 3 3 3 4 5 6 6 6 7 8 7 7 8 8 8 8 9 9 10 10 16 16 17 18 17 15 14 15 16 16 19 20 19 18 17 15 14 14 14 14 14 13 12 12 12 11
0 0 1 2 3 3 4 4 4 4 5 5 4 5 6 5 6 7 6 6 5 3 3 4 4 4 5 4 4 3 2 3 4 4 4 5 6 5 7 4 3 4 4 3 4 4 5 6 7 8 8 8 8 9 9 8 9 9 11 16 17 17 18 18 17 15 15 14 13 17 19 20 18 18 17 16 14 14 15 15 14 13 13 12 12
1 0 0 2 3 4 4 4 4 4 4 5 4 5 5 5 4 4 4 5 4 5 4 3 3 3 3 3 3 4 3 2 2 2 4 6 8 6 5 6 8 6 3 4 3 4 5 5 6 7 7 7 8 8 9 9 9 9 12 17 18 18 18 18 18 17 16 16 13 17 19 20 20 20 19 17 16 15 15 15 15 14 14 13 13
2 1 1 0 2 2 3 4 3 3 4 5 5 4 4 4 3 4 4 5 4 4 4 4 4 4 4 4 4 5 4 4 6 6 5 5 5 6 4 4 6 9 7 5 5 6 6 5 6 7 7 7 8 8 9 10 12 13 17 18 19 19 19 19 19 19 18 18 16 17 19 21 21 21 21 20 18 17 16 16 16 15 15 14 14
0 1 0 1 1 3 3 4 4 4 4 3 3 4 3 3 4 4 3 3 3 3 3 4 4 3 4 4 3 4 4 5 6 6 7 6 7 8 7 6 6 6 6 5 5 6 6 6 6 7 8 7 8 8 9 10 10 17 14 17 18 19 19 20 20 20 20 19 18 18 19 21 22 22 22 21 20 18 17 17 17 17 15 15 15
2 1 2 1 1 2 3 3 3 3 3 3 3 3 3 4 3 3 3 3 3 3 4 3 3 3 3 2 2 3 3 3 4 6 6 6 6 7 5 5 7 8 6 4 4 3 4 5 5 6 7 6 6 7 8 8 8 12 16 12 18 18 20 20 20 21 20 20 19 19 18 19 22 22 22 21 21 19 19 17 16 14 13 13 14
3 4 3 1 1 3 3 3 3 2 1 2 3 3 3 3 3 3 3 2 3 3 3 2 3 2 2 3 3 3 2 3 4 4 5 7 7 7 8 6 6 7 6 4 4 5 3 4 6 6 6 6 7 7 7 8 8 12 14 12 13 18 19 20 20 21 21 20 20 20 18 18 18 20 20 20 19 17 16 16 16 15 13 12 12
5 4 1 2 3 4 4 4 3 2 1 2 2 2 1 2 1 1 1 1 3 2 2 2 2 1 2 2 2 4 3 3 4 4 3 4 5 6 7 10 7 5 6 3 5 6 9 5 3 4 4 4 5 6 6 4 8 12 13 11 10 17 19 21 21 21 21 21 21 21 20 19 19 18 20 19 18 18 18 17 17 16 14 12 11
3 2 2 3 4 4 3 3 2 2 2 2 3 3 3 2 2 1 2 0 1 1 1 1 1 0 1 1 0 2 3 4 4 4 4 4 4 4 6 7 9 8 6 7 3 5 5 6 4 5 5 5 5 4 5 7 5 5 9 7 8 9 17 19 20 20 21 21 22 22 22 21 20 19 18 18 18 19 19 18 17 17 15 13 12
4 3 4 3 3 3 3 2 2 2 1 1 1 1 1 1 1 2 2 0 1 0 0 0 0 0 1 1 1 1 2 2 3 4 4 4 4 4 5 7 8 9 8 7 6 5 2 2 3 3 3 4 5 5 6 5 6 8 7 9 9 8 12 19 20 20 20 21 22 22 22 22 22 20 18 18 19 20 20 19 18 17 16 14 13
5 4 4 4 3 3 3 1 1 1 1 1 0 0 0 1 1 1 2 0 0 0 1 1 1 1 1 1 1 2 2 2 3 3 3 3 4 4 5 5 6 8 8 10 10 5 6 2 4 5 3 4 4 5 4 6 10 10 9 10 9 8 13 18 20 20 21 21 21 22 23 22 22 20 18 18 18 19 19 19 18 17 16 15 15
5 5 4 4 4 3 3 1 0 1 1 2 1 2 1 2 2 2 2 1 0 1 1 0 1 1 1 2 2 2 2 2 2 3 3 3 4 4 4 4 4 5 8 9 11 5 4 6 4 3 3 4 5 4 4 4 5 6 6 7 8 12 14 13 19 20 21 21 22 22 23 22 22 22 20 20 20 20 19 19 19 18 17 17 17
5 5 5 4 4 3 1 0 0 1 1 3 2 3 3 2 2 3 3 1 1 2 3 1 2 2 2 2 3 3 3 2 3 3 3 3 3 4 4 4 4 4 5 8 10 12 6 6 7 6 5 6 7 7 8 6 5 5 5 6 7 9 7 7 13 18 19 20 21 22 22 22 22 22 21 21 21 21 20 20 20 19 18 18 18
6 5 5 4 4 3 1 0 1 1 2 4 3 2 3 3 3 3 3 3 3 3 3 3 2 3 3 3 3 3 3 3 3 3 3 3 2 3 3 4 5 4 5 6 9 10 9 5 5 5 6 6 7 6 8 7 7 5 4 5 4 5 6 7 7 14 18 19 20 21 21 22 22 22 21 22 22 22 21 21 20 20 18 18 18
6 6 5 4 4 3 2 1 1 1 2 2 3 3 3 4 4 3 3 3 4 4 4 4 4 4 3 4 4 4 4 4 3 3 3 3 3 3 3 4 5 5 4 6 7 7 10 7 6 6 6 5 8 5 7 8 8 5 6 6 4 5 7 6 7 7 17 19 20 20 21 22 22 22 21 21 22 22 21 21 20 19 19 18 18
4 6 6 5 5 4 3 2 1 1 1 1 1 1 1 1 3 4 3 3 4 5 5 5 5 4 5 4 5 4 3 4 4 3 3 3 2 3 4 4 5 5 4 6 7 8 8 9 6 6 4 4 5 8 8 8 8 6 6 7 7 5 5 6 7 6 11 18 19 20 21 22 22 22 23 22 22 22 22 21 20 19 19 19 19
7 4 6 6 5 4 4 2 1 1 1 1 1 0 1 1 2 3 3 3 3 4 5 5 6 5 5 5 5 4 4 4 4 4 4 3 3 4 4 4 4 4 4 5 5 6 6 8 7 7 7 8 7 7 8 7 7 6 5 5 3 5 5 5 7 7 9 15 18 19 19 20 21 22 22 22 22 22 22 21 20 19 18 18 18
6 6 4 4 4 4 5 4 3 3 3 2 1 1 1 1 2 2 3 3 3 4 4 5 6 6 5 5 5 4 4 5 5 5 4 4 6 6 6 5 4 4 4 3 4 6 7 9 9 6 6 7 7 8 8 9 8 5 2 4 6 6 5 5 4 5 5 10 15 17 17 18 18 20 22 22 22 21 21 21 20 19 19 18 18
5 5 6 4 5 5 4 4 4 4 3 3 3 2 2 1 2 2 2 3 3 4 4 4 4 5 6 6 5 5 6 7 7 6 5 7 7 6 6 6 6 5 4 4 3 4 6 8 9 10 5 6 7 7 7 6 8 8 6 4 3 3 4 5 5 4 3 4 6 9 12 14 16 18 18 20 21 21 21 21 20 20 20 20 20
6 5 4 5 4 5 4 4 4 4 4 3 3 2 2 2 2 2 3 3 4 4 4 4 4 4 4 5 5 5 6 6 7 7 7 7 6 7 6 6 5 5 5 4 4 4 4 6 8 8 8 5 5 9 8 6 7 7 8 6 6 5 4 6 7 4 2 4 6 11 12 12 14 14 18 20 20 20 19 19 19 21 21 21 21
6 5 5 5 4 4 5 5 4 3 3 2 2 2 2 2 2 3 4 4 5 4 5 5 5 5 5 6 6 6 7 7 7 8 7 8 6 7 6 5 6 7 7 7 7 6 5 6 7 9 7 7 5 6 6 6 6 4 5 6 9 7 6 6 5 5 2 2 4 4 6 7 9 12 14 16 17 17 19 18 20 20 21 21 21
6 6 5 5 5 4 4 4 4 4 4 2 1 1 2 3 2 4 4 5 6 6 6 6 6 6 6 6 6 7 8 11 13 11 10 9 7 8 7 5 7 8 8 8 8 7 7 7 8 7 8 7 6 5 7 6 5 7 5 3 6 7 5 4 4 2 3 4 3 3 6 7 8 8 9 9 12 16 14 16 14 19 21 21 21
6 5 5 4 5 5 5 4 4 3 2 1 1 3 3 2 4 4 5 5 5 6 6 7 6 6 7 6 7 12 14 14 13 13 13 13 12 10 9 9 9 9 9 9 9 8 8 9 9 8 9 9 6 5 5 6 7 5 6 5 6 6 1 2 3 4 3 4 4 6 7 6 7 7 7 10 10 9 8 10 11 13 16 19 19
6 5 5 4 4 4 6 5 4 2 1 0 1 3 5 7 4 4 4 5 5 6 6 6 7 7 6 6 6 8 11 11 11 13 13 13 13 13 14 14 12 11 10 10 10 8 8 9 8 8 9 11 9 6 7 8 7 7 6 5 5 4 4 5 7 2 4 7 7 5 6 5 7 9 9 10 9 9 9 11 14 16 18 18 19
5 4 4 4 5 5 5 4 3 1 0 2 2 4 6 7 7 5 4 5 5 5 6 6 6 6 7 7 6 6 7 8 9 8 11 13 14 15 15 15 15 15 14 12 11 10 9 9 10 9 8 10 9 7 7 4 7 7 6 6 5 6 6 6 5 6 1 6 6 5 7 2 5 7 8 9 7 7 10 11 15 18 19 20 21
5 5 5 5 5 4 5 5 3 2 1 4 5 6 7 7 9 8 5 5 6 6 7 7 7 7 7 8 8 7 6 11 12 9 8 9 12 15 15 16 17 17 17 18 18 15 12 12 11 12 11 9 10 10 7 8 6 9 7 7 5 4 6 7 7 8 1 2 3 4 7 2 5 6 8 6 5 5 7 9 16 18 19 21 21
6 5 5 5 4 4 4 4 3 2 2 5 7 8 7 9 10 9 5 6 7 7 8 8 8 8 8 9 9 9 6 7 7 8 8 9 9 10 10 10 10 12 15 16 18 20 18 14 13 14 11 7 11 9 8 6 6 7 7 8 6 6 6 8 6 4 2 7 8 4 2 3 4 5 8 4 4 5 6 8 11 12 15 18 18
8 8 7 6 5 5 4 4 3 3 3 7 8 8 8 9 11 10 6 6 7 7 8 8 9 9 9 9 9 10 9 8 7 8 9 9 9 10 10 10 10 10 10 10 10 9 10 10 13 14 13 11 11 10 9 8 10 8 5 7 7 7 8 1 0 1 2 6 6 6 7 2 3 5 7 4 3 3 2 6 13 15 15 16 16
6 6 4 5 5 5 5 4 3 3 4 7 7 8 10 11 13 8 6 7 8 8 8 8 8 8 8 9 9 10 10 9 10 13 13 10 10 11 12 11 11 11 11 11 13 14 13 11 10 11 10 11 12 10 8 5 3 6 9 10 9 8 8 7 10 4 7 4 7 8 4 4 4 7 4 3 5 4 4 4 9 13 13 14 15
8 7 7 5 5 5 4 3 3 3 3 5 7 9 10 13 10 7 7 8 7 8 9 8 8 8 8 8 9 9 10 10 11 13 14 13 11 12 12 12 11 11 12 9 13 17 18 19 21 21 21 19 18 17 16 17 14 9 9 10 12 8 8 10 9 6 8 6 6 7 6 6 5 7 4 2 3 4 5 5 6 10 12 13 14
7 7 6 5 4 4 4 4 3 3 3 5 8 10 12 13 12 9 7 8 9 8 9 8 7 8 8 15 15 11 11 11 12 13 13 11 11 11 11 12 13 12 12 8 9 10 15 18 20 20 20 19 20 21 21 20 18 11 9 13 10 6 11 10 10 8 5 6 7 8 5 6 4 4 4 2 1 1 4 4 5 7 11 12 15
6 5 5 5 4 3 3 2 2 1 2 4 8 10 12 13 11 7 8 8 9 9 9 9 7 8 8 10 16 16 14 14 16 15 15 13 12 12 11 12 13 13 10 6 10 9 8 10 11 11 12 16 16 15 15 19 18 16 13 14 10 11 13 10 10 7 7 8 7 11 9 4 7 6 6 4 3 2 4 4 6 6 6 7 8
Wind_Direction
177 188 172 179 143 269 180 179 167 178 151 153 160 152 151 174 198 221 225 246 254 270 278 286 282 246 145 185 171 207 212 210 196 191 206 213 216 227 203 199 196 198 193 191 187 180 181 180 180 178 172 179 191 194 203 198 189 224 208 196 248 299 332 335 125 119 113 107 100 92 90 91 93 92 89 87 87 87 86 86 85 82 79 80 81
183 181 175 181 180 197 176 174 182 189 171 172 171 161 158 165 198 223 238 250 262 253 248 275 281 268 223 159 180 199 208 211 200 196 200 207 217 227 213 205 204 205 201 196 193 190 189 186 185 181 187 183 182 187 191 205 183 220 222 196 243 280 308 320 144 130 124 123 114 104 110 105 98 95 95 93 91 89 88 88 88 88 86 85 86
178 183 194 181 175 186 182 162 182 209 187 170 165 165 163 172 188 206 217 237 248 260 263 274 282 285 275 253 180 180 202 213 208 199 193 205 210 218 219 210 207 208 204 198 199 197 196 190 193 185 192 178 182 184 186 193 197 206 230 197 226 260 295 309 167 136 135 138 131 119 115 113 106 101 98 97 96 94 94 94 94 93 93 90 89
181 190 191 185 177 184 184 181 171 205 200 171 155 143 163 184 188 203 215 214 240 251 239 251 268 263 261 256 207 190 202 201 201 195 201 197 204 219 220 211 207 206 206 202 205 204 202 201 201 196 194 181 187 190 186 191 203 209 225 207 214 250 281 299 175 146 147 151 144 137 131 122 118 110 104 104 105 103 102 101 98 99 99 96 92
196 195 192 192 194 190 189 193 190 176 178 177 155 133 131 146 186 193 207 213 234 248 245 235 251 257 251 253 200 212 198 198 214 195 200 198 199 209 214 211 206 210 210 209 209 210 208 205 207 202 196 193 195 193 194 196 198 209 224 209 209 236 263 287 182 154 158 161 153 146 141 132 126 120 114 109 106 105 105 105 105 103 100 98 96
191 180 173 192 200 192 193 210 206 197 188 169 161 157 167 145 146 137 192 198 215 227 218 237 240 249 247 249 207 215 191 199 208 202 199 202 202 201 207 207 204 203 208 215 212 214 213 207 205 203 200 200 199 198 199 199 199 206 214 214 211 228 257 278 208 162 167 168 164 160 152 143 135 129 124 119 115 113 113 112 111 108 105 102 100
234 141 172 192 194 206 206 184 175 203 231 212 186 215 224 193 154 153 183 225 240 233 227 239 243 238 236 230 226 190 190 202 201 206 204 207 192 209 207 209 207 203 204 207 219 217 215 214 206 203 205 208 204 204 206 203 201 200 204 211 212 224 248 264 257 185 171 170 174 170 163 154 145 137 133 129 125 122 120 121 118 115 110 109 107
304 69 302 327 92 236 39 77 173 190 213 209 194 225 230 228 209 167 216 255 237 246 212 239 242 244 233 218 223 173 198 193 197 201 209 189 206 206 208 211 211 212 206 204 212 222 220 217 211 201 209 213 210 209 210 213 205 209 201 205 203 213 231 251 272 197 172 175 175 180 173 164 155 147 142 138 135 132 131 128 123 119 116 113 112
171 173 179 232 225 326 45 354 296 200 144 150 227 232 230 227 224 192 209 265 272 280 292 275 265 247 226 215 221 188 193 197 193 201 180 191 206 210 209 216 217 217 211 207 210 220 228 223 217 211 210 215 213 212 213 217 213 214 207 208 210 205 215 235 251 215 179 179 179 183 185 173 163 156 150 146 145 142 138 133 129 124 122 120 118
167 200 83 303 155 119 220 235 314 358 39 247 225 219 252 268 267 203 180 213 239 267 306 315 267 247 223 202 204 197 202 204 200 185 181 197 202 206 210 211 209 213 212 211 211 214 224 230 225 220 216 215 211 211 215 219 216 217 215 212 214 212 212 219 231 215 194 183 180 182 187 180 172 165 159 156 153 150 146 141 136 132 127 124 121
24 33 97 111 65 134 234 216 199 210 242 243 256 276 274 352 314 12 306 251 254 286 281 295 300 278 225 212 197 206 201 175 192 185 197 200 200 207 200 211 209 211 211 212 212 210 217 224 224 220 221 217 212 209 212 219 218 217 217 220 215 214 216 222 225 210 201 192 186 180 182 184 183 175 169 166 162 158 155 149 145 139 136 131 128
47 27 21 43 61 104 214 267 127 239 302 340 67 79 318 312 6 182 245 283 298 321 333 337 331 341 348 309 206 198 205 189 186 198 203 206 210 195 203 206 205 214 214 215 211 213 211 213 217 220 219 220 215 210 209 214 217 217 218 222 220 216 219 223 232 217 201 192 191 181 180 185 192 184 178 173 169 168 161 157 152 147 143 139 134
47 55 54 78 99 83 64 351 351 107 183 172 102 126 78 84 57 360 237 242 340 360 321 331 360 330 352 347 325 240 234 200 198 201 201 204 203 204 217 200 211 210 214 211 214 213 214 212 214 219 220 218 221 217 212 213 213 214 219 222 226 229 223 223 234 232 202 199 196 182 179 184 196 193 185 180 176 176 167 164 160 154 148 144 141
73 72 72 79 75 63 77 76 44 15 5 59 99 159 168 90 77 154 250 197 211 108 282 339 324 281 336 334 334 317 271 210 217 214 206 200 190 201 208 215 215 215 210 206 216 214 214 212 212 212 215 215 216 212 217 218 216 214 217 220 221 225 227 228 232 236 208 203 196 192 179 180 193 196 190 186 183 182 173 169 167 163 157 151 147
72 75 76 63 77 80 61 50 35 26 44 42 39 23 39 83 132 213 323 119 239 333 25 113 239 156 152 312 308 335 316 335 276 243 216 200 192 204 203 211 219 215 208 208 214 217 217 209 208 210 212 213 212 212 212 215 216 216 215 216 220 223 221 228 232 236 217 208 198 191 188 189 188 194 192 189 188 185 181 173 173 170 164 160 154
76 86 80 72 81 85 83 63 49 35 66 56 43 41 31 43 79 278 288 40 94 142 137 96 56 13 325 190 247 111 316 297 302 280 220 218 197 206 200 211 215 216 199 212 216 214 217 209 210 209 212 211 211 211 211 212 218 217 217 215 217 220 224 224 231 235 228 203 208 198 190 201 195 193 193 192 191 191 188 178 178 177 172 168 159
78 85 89 83 69 83 85 77 64 43 63 66 58 49 45 48 47 48 11 2 354 9 0 83 305 146 143 357 319 306 227 281 347 286 310 212 225 219 207 211 210 206 204 219 218 215 212 212 212 211 212 211 211 210 211 213 215 216 218 218 217 217 220 223 227 234 236 212 209 208 197 202 202 191 193 192 195 195 194 183 184 181 180 173 166
35 78 95 96 86 87 89 87 77 57 60 78 73 52 40 49 42 55 37 18 343 346 13 33 347 265 165 210 132 206 323 329 358 291 321 237 290 257 231 230 223 211 209 215 215 218 209 215 209 213 211 211 212 211 209 209 210 211 210 216 215 214 216 218 223 229 236 221 207 214 202 198 202 201 191 194 199 201 200 189 187 187 185 180 173
65 76 91 86 90 77 80 84 82 69 63 59 54 58 54 45 39 53 48 37 38 45 22 11 330 4 33 238 250 217 212 276 275 336 324 319 349 351 311 258 225 223 230 228 216 215 218 215 215 214 212 210 211 213 210 212 212 211 211 213 212 213 215 216 222 230 233 231 217 215 214 197 201 205 200 191 192 199 202 194 191 192 190 187 180
103 65 100 112 97 72 70 72 71 73 69 63 60 49 55 42 49 59 50 46 50 57 37 24 26 355 350 340 331 320 278 254 245 237 268 289 298 302 272 281 313 255 236 241 232 220 210 212 219 217 215 213 210 210 211 211 212 214 216 215 213 213 214 215 217 226 234 237 228 214 209 204 200 202 206 197 191 194 200 199 196 196 195 192 186
24 73 67 108 112 111 88 71 70 67 77 74 65 58 58 55 44 43 45 41 39 38 56 34 29 16 349 359 321 277 271 260 267 268 281 287 282 273 294 323 313 280 275 257 263 254 238 222 216 216 214 216 210 210 209 209 211 212 217 213 213 213 213 213 212 216 226 231 235 225 209 206 206 200 204 204 199 196 200 202 199 199 200 196 193
9 20 31 57 100 107 100 91 89 84 78 84 80 69 63 62 61 65 59 59 38 41 46 39 45 16 9 337 0 346 333 294 266 273 250 253 280 292 309 319 309 295 315 297 278 261 253 244 229 220 218 214 214 213 210 210 211 211 217 214 211 211 212 211 210 211 217 222 222 230 222 211 208 197 200 206 206 203 202 206 205 202 203 201 198
346 11 18 49 75 71 92 98 91 82 84 80 76 86 86 90 84 73 66 71 57 54 38 33 37 34 22 16 10 8 346 328 328 324 306 284 279 278 279 262 265 285 284 283 276 269 253 236 236 238 229 219 212 211 212 215 212 215 215 213 210 209 210 210 209 209 212 215 218 223 223 219 208 203 197 201 206 206 204 208 211 207 207 205 202
17 359 351 11 56 48 56 68 70 76 78 94 91 93 95 88 73 72 74 74 70 67 62 40 30 35 27 16 15 355 351 347 339 327 326 311 298 297 295 299 277 254 282 291 267 258 256 241 233 232 231 225 217 212 215 215 219 218 216 216 211 209 209 210 210 210 210 211 213 217 219 220 212 206 199 199 202 205 204 206 211 213 210 210 210
267 206 267 235 109 92 82 82 71 75 92 76 75 81 86 91 96 89 78 65 67 73 64 45 52 47 8 2 10 8 348 332 330 330 322 321 319 313 301 296 285 291 286 288 291 283 269 270 243 237 243 236 232 221 217 214 220 220 216 220 212 209 210 211 211 210 209 209 208 212 214 219 216 211 207 204 199 204 206 203 205 208 211 214 212
216 217 214 159 127 137 121 119 128 133 97 88 80 86 86 86 89 80 72 107 93 80 82 63 52 41 23 10 353 347 334 331 326 328 332 332 330 325 321 307 285 281 286 279 271 293 275 250 254 246 239 237 233 227 220 210 224 226 216 218 214 211 211 211 211 211 209 207 206 207 211 211 215 210 203 201 200 194 201 194 194 196 203 210 207
195 227 189 160 140 132 136 139 156 155 132 91 85 86 88 54 70 87 79 115 107 108 101 94 49 21 10 353 338 338 333 327 327 317 315 309 309 315 319 317 307 288 282 263 274 239 264 277 265 264 242 250 255 243 239 230 230 224 214 214 217 208 210 211 211 210 208 207 205 206 207 208 207 205 202 199 199 190 191 191 189 189 195 201 201
201 170 178 141 144 127 116 128 128 93 70 62 43 35 34 24 353 31 336 135 99 82 133 104 66 351 288 279 16 311 315 320 317 306 308 301 299 297 305 307 309 302 304 291 254 257 243 263 271 246 252 230 233 234 234 231 217 253 242 234 227 216 210 211 212 210 209 208 206 205 207 207 206 206 203 197 191 189 191 190 188 187 191 195 197
174 173 151 157 143 141 130 143 140 124 85 70 47 28 33 12 344 334 321 92 125 127 171 105 224 204 269 276 272 249 281 299 310 314 313 316 312 305 304 307 309 299 299 291 277 273 285 217 268 289 256 267 251 219 225 238 235 226 245 241 230 223 207 209 210 210 209 209 207 206 206 208 206 203 200 197 190 188 191 190 188 187 189 191 194
159 159 145 145 150 140 144 122 53 33 14 346 56 72 74 344 283 269 239 166 77 161 175 168 241 237 235 272 260 279 262 280 293 303 312 309 308 313 315 314 314 304 299 292 289 272 281 245 231 263 290 283 282 271 231 244 245 225 221 221 228 227 213 206 208 208 208 208 208 207 207 208 206 201 198 195 191 191 192 191 189 188 187 189 189
150 144 144 144 142 127 113 106 26 339 346 318 341 325 17 319 301 296 298 12 104 305 269 224 246 211 234 248 255 254 247 260 274 283 286 295 291 293 297 303 306 307 307 301 292 282 186 263 237 254 271 289 279 285 282 253 250 228 227 228 230 231 222 213 211 209 208 207 207 207 207 207 205 201 198 197 194 194 194 193 192 190 189 186 185
163 156 151 149 148 135 113 107 32 356 320 314 326 306 342 324 322 324 303 343 316 290 281 273 255 256 261 263 257 256 251 244 264 272 277 278 285 300 302 301 292 282 292 297 287 289 297 286 275 266 260 269 278 279 275 279 257 223 222 230 237 247 226 231 219 215 212 210 208 208 206 206 204 201 199 197 196 195 193 195 194 191 187 186 183
158 157 155 152 149 146 129 141 199 258 282 289 298 324 331 314 312 298 301 316 310 298 306 304 295 282 278 279 278 267 265 271 263 263 265 271 296 297 301 304 300 302 300 303 298 299 301 305 292 286 273 261 268 242 258 265 274 275 252 241 225 213 221 223 221 214 214 213 212 210 208 206 205 202 199 198 196 194 193 195 194 191 186 184 182
161 160 159 157 150 146 154 191 229 268 292 299 323 356 326 325 314 320 317 315 311 302 314 303 300 290 281 287 283 283 272 260 263 264 253 268 284 304 299 294 297 295 295 293 292 292 295 302 302 306 297 270 262 251 248 256 260 254 252 252 233 213 218 225 220 219 213 213 211 211 210 207 206 203 200 199 197 194 194 194 194 190 185 182 181
171 158 163 160 161 154 158 186 191 222 258 273 288 292 304 300 302 311 309 311 302 300 302 292 290 290 293 285 287 281 278 274 269 264 258 258 264 282 281 276 278 282 294 294 293 294 298 297 313 304 304 299 272 280 266 253 253 242 241 246 236 223 223 215 219 228 209 213 215 213 211 208 206 203 202 200 197 196 194 194 192 189 185 181 180
163 175 160 163 153 150 161 165 163 182 195 225 257 192 232 240 270 282 300 302 295 290 288 288 288 286 277 283 281 280 273 280 285 284 268 259 270 276 275 267 264 276 287 299 322 330 320 310 312 321 323 321 307 287 285 276 267 255 229 260 260 236 232 222 220 228 217 209 213 216 216 216 210 205 203 201 199 197 196 194 190 186 183 181 178
166 159 160 145 142 148 159 164 168 179 194 183 190 259 259 222 224 253 268 275 279 281 281 282 282 281 278 271 276 276 281 287 290 282 271 279 285 284 282 283 278 275 289 299 310 309 304 297 297 291 303 300 299 296 290 289 278 263 246 231 239 242 243 242 243 239 235 206 211 215 219 221 218 211 205 203 201 198 196 192 187 182 180 178 177
161 164 158 160 154 159 150 157 163 175 172 168 176 203 221 225 224 232 247 259 268 274 279 283 284 283 284 283 279 276 281 283 284 281 278 278 279 275 275 274 272 270 271 278 269 277 283 288 292 296 293 299 308 297 303 290 287 282 277 266 276 257 240 257 246 237 211 188 197 212 214 219 222 222 215 207 205 201 197 193 186 181 179 178 178
154 158 163 153 156 144 156 152 166 172 178 175 177 195 219 228 239 246 263 265 264 264 261 265 270 275 281 291 296 296 291 288 287 288 288 281 277 277 272 275 276 279 276 273 274 269 272 284 287 280 286 269 275 296 303 304 281 262 260 261 263 236 231 224 244 244 241 215 215 205 206 205 210 211 212 212 210 206 199 196 188 184 180 179 179
153 160 161 158 165 147 160 165 172 155 141 150 185 203 217 232 241 260 260 266 266 263 264 264 266 268 268 273 280 287 290 291 288 285 284 284 282 277 273 279 285 287 282 279 273 270 270 276 276 289 284 287 272 266 283 305 299 285 252 244 253 251 235 230 238 236 251 212 218 225 225 208 214 215 218 217 215 207 203 199 194 187 183 182 181
156 163 161 150 143 136 133 138 133 139 143 177 195 208 252 279 271 274 275 272 270 271 269 266 262 261 262 262 267 267 269 273 279 286 286 286 290 286 279 277 281 282 282 279 275 270 268 269 276 276 284 284 278 279 291 293 277 283 299 278 267 267 252 228 257 268 208 203 219 205 210 201 202 203 202 208 214 208 205 201 202 194 186 183 180
154 156 152 150 144 146 130 118 124 129 144 185 229 274 303 297 296 291 284 278 274 273 276 277 272 265 262 262 260 263 266 268 269 272 276 277 274 270 278 278 275 274 272 275 272 272 273 268 264 276 279 278 280 275 273 270 281 283 290 291 269 276 316 252 296 240 195 195 199 216 220 194 194 204 201 214 218 189 197 195 198 191 189 185 178
152 154 139 127 124 128 133 135 124 118 137 198 305 327 312 308 302 290 284 282 278 276 273 273 275 273 271 265 263 264 267 269 269 266 266 267 267 272 274 275 271 266 270 266 264 262 264 264 265 260 263 275 272 269 270 279 277 276 274 267 255 282 244 240 251 299 208 186 212 229 236 198 186 199 204 216 208 189 195 202 191 184 182 178 176
146 127 114 128 134 132 120 115 119 147 166 237 291 300 300 298 295 288 281 277 274 267 264 264 263 264 265 263 258 254 256 253 257 260 261 260 261 262 261 261 262 262 257 260 268 266 254 262 262 255 259 258 274 266 271 279 280 286 274 265 258 248 250 242 250 252 290 184 197 213 247 133 202 215 215 219 202 190 201 191 179 183 177 180 179
122 119 136 129 132 130 125 129 137 170 208 245 257 267 273 277 281 283 275 269 269 269 267 265 264 265 263 264 263 251 245 251 262 265 264 266 264 263 262 263 261 257 257 256 253 254 265 260 260 262 248 261 264 261 256 260 259 270 279 273 259 237 237 246 244 257 333 189 160 217 240 202 183 213 232 215 173 173 194 191 186 184 184 184 182
123 127 135 132 138 137 143 148 170 182 222 247 247 254 262 273 280 282 275 274 272 271 273 270 269 267 264 265 268 267 254 255 255 260 263 264 266 268 266 263 262 260 256 248 248 249 247 251 255 258 256 235 254 259 256 255 269 275 280 270 268 256 249 245 236 185 215 179 186 184 257 231 189 200 231 216 158 162 186 182 174 185 188 187 184
147 150 150 147 159 157 161 165 160 197 232 247 250 262 274 281 285 288 280 274 272 269 266 264 262 263 263 263 263 265 264 257 249 249 256 258 262 264 265 263 261 262 258 256 250 248 245 243 249 253 258 250 252 256 259 261 260 266 283 305 305 288 274 311 6 213 161 203 181 158 236 170 140 190 231 190 126 153 158 176 179 183 185 186 184
137 137 143 144 160 173 184 167 163 224 260 270 278 283 287 291 293 295 286 278 276 272 268 265 263 262 261 261 264 265 263 261 257 252 253 259 263 265 266 267 267 264 260 253 253 252 254 256 252 251 251 247 244 246 248 244 283 297 298 295 291 284 279 253 244 185 224 201 189 173 216 229 187 196 214 122 135 157 149 161 180 180 181 178 178
143 150 162 178 176 174 180 164 175 231 268 287 290 291 294 295 301 294 290 285 277 275 269 267 267 266 265 262 261 264 262 260 256 252 251 252 259 261 265 268 267 268 265 260 250 249 248 250 254 257 259 259 254 251 251 257 262 273 285 282 269 271 262 254 247 215 228 171 209 200 188 226 183 189 165 93 152 169 166 174 162 180 171 171 171
154 174 176 170 179 171 165 189 192 208 262 284 292 292 295 297 297 296 291 286 282 278 279 272 272 272 266 266 267 266 266 264 259 254 253 250 258 260 265 271 271 267 265 261 260 250 242 244 246 249 251 253 252 251 251 250 249 237 235 250 253 251 249 241 249 228 222 183 202 173 172 219 132 169 128 81 66 249 182 167 151 160 166 169 170
169 169 167 171 173 181 187 207 217 213 255 289 293 293 295 297 301 297 294 291 290 285 284 284 274 272 274 269 271 273 271 271 268 266 261 258 263 264 267 268 264 262 259 265 262 263 252 250 248 248 252 250 250 247 246 241 236 230 233 243 244 237 242 234 234 235 238 236 190 173 194 194 146 193 147 115 228 230 155 158 159 160 164 160 166